KUIPER-00102

导读

KUIPER-00102是美国亚马逊柯伊伯(Kuiper)卫星互联网项目的卫星,于2025年8月11日发射。该项目旨在通过数千颗低轨卫星,为全球尤其是偏远地区提供高速低延迟、价格可负担的互联网接入。卫星配备多波束相控阵天线与高增益抛物面天线,可灵活分配容量,计划采用激光星间链路实现高速组网,工作于Ka频段,是亚马逊布局低轨卫星互联网的重要组成部分。

基本信息
目录编号:
65140
目录名称:
KUIPER-00102
国际标识:
2025-171J
轨道中心:
EARTH
卫星名称:
KUIPER-00102
卫星全名:
KUIPER-00102
卫星状态:
在轨 (已飞行397 天)
发射日期:
2025-08-11 UTC
国别 :
美国 (US)
星等 :
--
该卫星已列入 空间交会检测服务 Space Conjunction Data Service (SCDS) ,当前飞行风险评估等级: 无高风险
轨道信息
数据来源 国际轨道数据 AOE轨道数据
星历时间 2026-09-12T01:27:35+0800
12小时前
查看轨道信息
2026-09-06T09:00:00+0800
6天前
查看轨道信息
半长轴 7007.691km 7007.686km
偏心率 0.0000813 0.0001875
轨道倾角 51.899° 51.901°
近地点辐角 136.438° 111.885°
升交点赤经 50.384° 75.531°
平近点角 223.664° 177.275°
近地点 628.984km 628.235km
远地点 630.124km 630.863km
周期 97.302分钟 97.302分钟
每日圈数 14.799273 14.799289
详细信息
使用方式:
暂无
2D轨道图
3D轨道图
轨道高度分析图
轨道倾角分析图
轨道综合分析图
查看轨道综合分析图
交会数据列表
事件ID 空间交会对象 最接近时刻(TCA) 交会距离 交会风险概率(CRP) 交会风险指数(CRI) 操作
CDM_260912-050903-243206-514021
2026-09-12T
05:09:26+0000
2.813 km
极远距离
1.34504E-6 低风险 0.38
与全量物体交会距离演化趋势
与全量物体交会风险概率演化趋势